Regional Weather Roundup
Issued by NWS Green Bay, WI

Home | Current Version | Previous Version | Graphics & Text | Print | Product List | Glossary Off
Versions: 1 2 3 4 5 6 7 8 9 10 11 12 13 14 15 16 17 18 19 20 21 22 23 24 25 26 27 28 29 30 31 32 33 34 35 36 37 38 39 40 41 42 43 44 45 46 47 48 49 50

000
ASUS43 KGRB 290710
RWRGRB

NORTH-CENTRAL AND NORTHEAST WISCONSIN REGIONAL WEATHER ROUNDUP
NATIONAL WEATHER SERVICE GREEN BAY WI
200 AM CDT SUN MAR 29 2015

WIZ005-009-010>012-018-019-290800-
NORTH CENTRAL WISCONSIN

CITY           SKY/WX    TMP DP  RH WIND       PRES   REMARKS
IRONWOOD       PTCLDY    34  14  44 S17G25    29.83F
MANITOWISH WTR MOCLDY    30  14  51 S12G18    29.89F
ARBOR VITAE    MOCLDY    32  16  51 S16       29.91F
EAGLE RIVER    MOCLDY    30  11  45 S7G21     29.92F
LAND O LAKES   MOCLDY    31  13  48 S8G18     29.91F
RHINELANDER    MOCLDY    30  13  49 S16G24    29.95F
PHILLIPS       MOCLDY    32  14  48 S15G24    29.92F
ANTIGO         MOCLDY    28  16  61 S10       30.00F
TOMAHAWK       MOCLDY    30  15  53 S5        29.96F
MERRILL        MOCLDY    32  15  50 S10G20    29.98F
$$

WIZ013-073-290800-
NORTHEAST WISCONSIN

CITY           SKY/WX    TMP DP  RH WIND       PRES   REMARKS
IRON MOUNTAIN  PTCLDY    29  13  51 S10       29.99F
MARINETTE      CLEAR     28  18  64 SW12G17   30.08F
OCONTO         CLEAR     29  19  65 S8        30.09F
$$

WIZ017-030-035>037-045-290800-
CENTRAL WISCONSIN

CITY           SKY/WX    TMP DP  RH WIND       PRES   REMARKS
MEDFORD        CLOUDY    31  17  56 S15G21    29.95F
WAUSAU         MOCLDY    31  15  52 S10G20    29.99F
MOSINEE        MOCLDY    32  16  51 S16       30.02F
MARSHFIELD     CLOUDY    32  14  47 S15       30.00F
WISC RAPIDS    MOCLDY    32  11  41 S12       30.05F
STEVENS POINT  MOCLDY    29  13  51 S12       30.04F
WAUPACA        MOCLDY    32  16  51 S10       30.09F
SHAWANO        PTCLDY    33  17  51 S5        30.08F
CLINTONVILLE   MOCLDY    32  16  51 S12       30.08F
$$

WIZ038-039-048-051-290800-
FOX VALLEY

CITY           SKY/WX    TMP DP  RH WIND       PRES   REMARKS
NWS GREEN BAY  PTCLDY    28  20  71 S9        30.10F
APPLETON       PTCLDY    30  18  59 S10       30.10F
OSHKOSH        PTCLDY    28  18  66 S13       30.11F
FOND DU LAC    PTCLDY    28  17  63 S10       30.12F
$$

WIZ022-050-052-290800-
EAST CENTRAL WISCONSIN

CITY           SKY/WX    TMP DP  RH WIND       PRES   REMARKS
STURGEON BAY     N/A     27  18  69 S10       30.12F
MANITOWOC      PTCLDY    27  18  69 S9        30.15F
SHEBOYGAN      CLEAR     25  15  66 S10       30.16F
$$

LMZ563-521-522-541>543-290800-
LAKESHORE

STATION/POSITION TIME  TEMP    WIND        PRES    VSBY  WAVE
                       AIR SEA DIR/SP/G                  HT/PER
                 (UTC) (F)     (DEG/KT/KT) (MB)    (MI)  (FT/S)
SHEBOYGAN LKSHOR 0700   31     200/ 15/ 16 1022.3F
NORTHPORT PIER   0700   29     180/  4/ 11 1019.3S
SISTER BAY LKSHO 0600   28     190/ 14/ 17   N/A
CHAMBERS ISLAND  0700   27     170/  8/ 17 1019.3F
$$


USA.gov is the U.S. government's official web portal to all federal, state and local government web resources and services.